Zurück zum Katalog

STARLINK-1568

AktivKommunikationVLEO
NORAD 46080·PAYLOAD·🇺🇸 United States

Gestartet Aug 7, 2020 von Cape Canaveral Space Force Station

Loading…

Nächste Überflüge (nächste 24 Stunden)

TLE

AktuellSource: CelesTrak SupGP

Epoche: Sep 15, 2026, 01:08 UTC

1 46080C 20055BF  26258.04770833  .00034601  00000+0  37098-3 0  2586
2 46080  53.0533 198.1996 0004654  60.2362 112.9924 15.63141008    18

Verfolge STARLINK-1568 in Echtzeit mit AllMySat

Download on the App Store